Zurück zum Katalog

STARLINK-32414

AktivKommunikationVLEO
NORAD 61667·PAYLOAD·🇺🇸 United States

Gestartet Oct 26, 2024 von Cape Canaveral Space Force Station

Loading…

Nächste Überflüge (nächste 24 Stunden)

TLE

AktuellSource: CelesTrak SupGP

Epoche: Sep 15, 2026, 03:43 UTC

1 61667C 24193G   26258.15534722 -.00000192  00000+0 -56625-5 0  2587
2 61667  53.1588 290.4672 0001187  85.2107 202.3833 15.34392057    19

Verfolge STARLINK-32414 in Echtzeit mit AllMySat

Download on the App Store